ELECTRON KICK STAGE R/B, 67559

Orbit data source: Space-Track

ELECTRON KICK STAGE R/B, 67559 is space debris in LEO originally from a launch on Thu, 22 Jan 2026 UTC launched from the Rocket Lab Launch Complex (RLLC). Debris objects in space refer to the collection of defunct objects orbiting the Earth. Examples of debris include non-operational satellites, rocket bodies, and fragments generated from explosions, collisions, or faulty payload assembly.

Loading next visibility...
Identifier
67559, 2026-015D
Orbit
LEO
Country
Flag of USUS
Related business
Manufacturer
Rocket Lab
Mission
Spacecraft
Bus & Motor
KICK STAGE, CURIE
Mass
~42 kg wet, ~42 kg dry
Launch date (UTC)
2026-01-22 (5 months ago)
Launch vehicle
Unknown
Launch site
Rocket Lab Launch Complex (RLLC)
Object type
Payload
Rocket body
Debris
Shape & HBR
Trunc Cone, 0.9 m
Radar Cross Section
0.760 m², Large (>1 m²)

Expand to show TLE details & history
Last TLE update: 14 hours ago

TLE from 14 hours ago
0 ELECTRON KICK STAGE R/B
1 67559U 26015D   26171.28592870  .00114666  12595-5  16079-2 0  9990
2 67559  89.0445 265.6285 0465888 164.5342 197.0701 14.85025720 21958
Epoch: 2026-06-20T06:51Z
TLE epoch observation values (Epoch: 2026-06-20T06:51:44.239Z)
Latitude
-0.00008°
Longitude
-105.80857°
Altitude
929.343 km
Speed
7.22 km/s
True Right ascension
17h 42m 30s
True Declination
0° 00' 00"
Sunlit
Object was in full shadow at epoch
Visualization orbit readout
Latitude
Unknown
Longitude
Unknown
Altitude
Unknown
Speed
Unknown
Apparent Right ascension
Unknown
Apparent Declination
Unknown
Sunlit
N/A
Visualization observer readout
Local Sidereal Time
07:24:39
Azimuth
Unknown
Elevation
Unknown
Doppler factor
Unknown
Orbital elements
Apogee altitude
935.939 km
Perigee altitude
284.768 km
Semi-major axis
6,988.49 km
Eccentricity
0.04659
Inclination
89.0445°
RAAN
265.6285°
Arg. of periapsis
164.5342°
True anomaly
195.58594°
Mean anomaly
197.0701°
Eccentric anomaly
196.32001°
Mean motion
3.71508 °/min
Orbital period
96.9 mins
BSTAR
0.0016079
Loading maneuver chart data...
Computing Atmospheric mass density...
Loading historical data...
Loading historical data...
Loading historical data...
Loading historical data...
Loading historical data...
Loading historical data...
Loading historical data...
Other satellites on launch #15 in the year 2026 (2026-01-22 UTC)

Documentation

Showing up to 5 results
|